Location: Arbon
(43.0005°N, 0.7472°E)
Time: 08:39:00
(UTC+00:00)

Vanguard 2 Rocket - Pass Details

Date: 28 November 2020
Orbit: 554 x 3325 km, 32.9° (Epoch: 21 January)

Event Time Altitude Azimuth Distance (km) Brightness Sun altitude
Rises 14:07:30 0° 277° (W) 6,491 11.6 17.7°
Reaches altitude 10° 14:13:35 10° 266° (W) 4,975 11.4 17.1°
Maximum altitude 14:22:33 22° 223° (SW) 3,217 12.4 16.1°
Drops below altitude 10° 14:28:52 10° 177° (S) 3,342 10.7 15.4°
Sets 14:31:59 0° 161° (SSE) 3,940 10.6 15.0°
